Content
SEND FEEDBACK

Daily
Averages
Monthly
Summary
United Kingdom

LONDON, ENGLAND


Home > Europe > United Kingdom > England
Elevation: 203 feet     Latitude: 51 09N     Longitude: 000 11W

WEATHER
 
SELECT A DAY
Number of Records: 296,239;   Date Range: 7/1/96 - 9/29/14
 
SHARE

PRINT THIS DATA

[ ← Previous Day ]
WEATHER ALMANAC - MAY 15, 2014
[ Next Day → ]
[ °C ]   °F
Weather ElementAverageHighLow
Temperature54.9 °F66.2 °F (1:20 pm)41 °F (4:50 am)
Dewpoint46.1 °F50 °F (3:50 pm)39.2 °F (5:20 am)
Humidity74.3 %100 % (1:20 am)46 % (2:50 pm)
Barometer30.58 in30.60 in (6:20 am)30.57 in (12:50 am)
Wind Speed3.7 mph8.1 mph (4:20 pm)
Wind Gust18.4 mph (2:50 pm)
Weather ElementAverage
Visibility5.1 mi
Wind DirectionENE (84.3 °)

Weather ElementTotal
Precipitation---
Heating Degree Days11.4 (Base 65)
Growing Degree Days3.6 (Base 50)
Averaged from 46 records on May 15, 2014
WEATHER CONDITIONS BREAKOUT
WIND DIRECTION BREAKOUT
WEATHER BY HOUR - MAY 15, 2014
[ °C ]   °F
Local TimeTemperatureDewpointHumidityBarometerVisibilityWind DirectionWind SpeedGust SpeedPrecipitationEventsConditions
12:50 AM46.4 °F44.6 °F93 %30.57 in5.6 miEast (90°)4.6 mph
1:20 AM44.6 °F44.6 °F100 %30.57 in5.0 miEast (80°)3.5 mph
1:50 AM46.4 °F44.6 °F93 %30.57 in4.3 miEast (90°)3.5 mph
2:20 AM46.4 °F44.6 °F93 %30.57 in5.0 miEast (80°)3.5 mph
2:50 AM44.6 °F44.6 °F100 %30.57 in4.3 miEast (90°)3.5 mph
3:20 AM46.4 °F44.6 °F93 %30.57 in3.7 miEast (100°)3.5 mph
3:50 AM44.6 °F42.8 °F93 %30.57 in3.1 miCalmHaze
4:20 AM44.6 °F42.8 °F93 %30.57 in1.9 miESE (110°)2.3 mphHaze
4:50 AM41.0 °F41.0 °F100 %30.57 in1.9 miENE (70°)2.3 mphMist
5:20 AM41.0 °F39.2 °F93 %30.57 inCalmHaze
5:50 AM42.8 °F41.0 °F93 %30.57 in2.5 miCalmMist
6:20 AM42.8 °F42.8 °F100 %30.60 in5.6 miCalm
6:50 AM46.4 °F44.6 °F93 %30.60 in5.6 miVariable2.3 mph
7:20 AM50.0 °F46.4 °F87 %30.60 in5.0 miVariable2.3 mph
7:50 AM50.0 °F46.4 °F87 %30.60 in5.6 miVariable2.3 mph
8:20 AM53.6 °F46.4 °F77 %30.60 in6.2 miCalmPartly Cloudy
8:50 AM53.6 °F46.4 °F77 %30.60 inVariable2.3 mphClear
9:20 AM57.2 °F48.2 °F72 %30.60 inVariable3.5 mphClear
9:50 AM59.0 °F48.2 °F67 %30.60 inVariable3.5 mphClear
10:20 AM59.0 °F46.4 °F63 %30.60 in6.2 miVariable3.5 mph15.0 mphPartly Cloudy
10:50 AM60.8 °F48.2 °F63 %30.60 in6.2 miVariable2.3 mphPartly Cloudy
11:20 AM62.6 °F48.2 °F59 %30.60 in6.2 miNorth (350°)4.6 mphPartly Cloudy
11:50 AM64.4 °F48.2 °F56 %30.60 in6.2 miNE (40°)6.9 mphScattered Clouds
12:20 PM64.4 °F48.2 °F56 %30.60 in6.2 miNNE (20°)6.9 mphScattered Clouds
12:50 PM64.4 °F46.4 °F52 %30.60 in6.2 miVariable4.6 mphScattered Clouds
1:20 PM66.2 °F46.4 °F49 %30.57 in6.2 miNW (320°)4.6 mphScattered Clouds
1:50 PM64.4 °F46.4 °F52 %30.57 in6.2 miVariable3.5 mphScattered Clouds
2:20 PM66.2 °F46.4 °F49 %30.57 inNNE (30°)5.8 mphClear
2:50 PM66.2 °F44.6 °F46 %30.57 inVariable4.6 mph18.4 mphClear
3:20 PM66.2 °F46.4 °F49 %30.57 inNE (50°)5.8 mphClear
3:50 PM64.4 °F50.0 °F59 %30.57 inSSE (150°)6.9 mphClear
4:20 PM62.6 °F50.0 °F63 %30.57 in6.2 miSouth (180°)8.1 mphPartly Cloudy
4:50 PM62.6 °F50.0 °F63 %30.57 in6.2 miSSW (200°)8.1 mphPartly Cloudy
5:20 PM62.6 °F50.0 °F63 %30.57 inSouth (190°)8.1 mphClear
5:50 PM62.6 °F50.0 °F63 %30.57 inSouth (170°)5.8 mphClear
6:20 PM62.6 °F50.0 °F63 %30.57 inSouth (190°)6.9 mphClear
6:50 PM60.8 °F48.2 °F63 %30.57 inSouth (190°)6.9 mphClear
7:20 PM60.8 °F48.2 °F63 %30.57 inSouth (180°)4.6 mphClear
8:20 PM57.2 °F46.4 °F67 %30.57 inSSW (210°)3.5 mphClear
8:50 PM55.4 °F46.4 °F72 %30.57 inSW (230°)3.5 mphClear
9:20 PM55.4 °F46.4 °F72 %30.60 inSW (230°)3.5 mphClear
9:50 PM53.6 °F46.4 °F77 %30.60 inWSW (240°)2.3 mphClear
10:20 PM51.8 °F46.4 °F82 %30.60 inVariable2.3 mphClear
10:50 PM51.8 °F46.4 °F82 %30.60 inCalmClear
11:20 PM48.2 °F44.6 °F87 %30.60 inCalmClear
11:50 PM48.2 °F42.8 °F82 %30.60 inVariable2.3 mphClear
Hourly data recorded from EGKK, located miles away from London, England







STORIES FROM OUR PARTNERS